DW6064 Weather Reports


time (UTC)temp
C
wind
direction
speed
KPH
gust
KPH
rain 1hr
cm
rain 24hr
cm
rain mn
cm
humidity
%
barometer
mb
20200531082027 12 344 0.0 0.0 0.00 0.00 0.00 60 1019.1
20200531081541 12 330 0.0 0.0 0.00 0.00 0.00 59 1019.1
20200531081038 12 327 0.0 3.2 0.00 0.00 0.00 59 1019.1
20200531080528 12 346 0.0 3.2 0.00 0.00 0.00 59 1019.1
20200531080026 12 346 0.0 0.0 0.00 0.00 0.00 58 1018.9
20200531075542 12 355 0.0 4.8 0.00 0.00 0.00 57 1018.9
20200531075037 13 355 0.0 4.8 0.00 0.00 0.00 57 1018.8
20200531074526 13 26 1.6 4.8 0.00 0.00 0.00 57 1018.8
20200531074043 13 343 1.6 4.8 0.00 0.00 0.00 56 1018.8
20200531073536 13 336 0.0 4.8 0.00 0.00 0.00 56 1018.7
20200531073034 13 333 1.6 6.4 0.00 0.00 0.00 56 1018.7
20200531072527 12 11 1.6 9.7 0.00 0.00 0.00 56 1018.6
20200531072043 12 332 1.6 9.7 0.00 0.00 0.00 58 1018.7
20200531071529 12 300 1.6 9.7 0.00 0.00 0.00 61 1018.7
20200531071026 12 328 0.0 9.7 0.00 0.00 0.00 60 1018.6
20200531070542 12 313 0.0 4.8 0.00 0.00 0.00 60 1018.7
20200531070038 12 337 1.6 4.8 0.00 0.00 0.00 61 1018.7
20200531065530 12 333 1.6 4.8 0.00 0.00 0.00 60 1018.7
20200531065025 13 324 0.0 0.0 0.00 0.00 0.00 61 1018.7
20200531064533 13 338 0.0 0.0 0.00 0.00 0.00 61 1018.6
20200531064030 13 338 0.0 1.6 0.00 0.00 0.00 60 1018.6
20200531063541 13 335 0.0 3.2 0.00 0.00 0.00 60 1018.6
20200531063041 13 336 1.6 3.2 0.00 0.00 0.00 58 1018.6
20200531062529 13 332 1.6 3.2 0.00 0.00 0.00 58 1018.5
20200531062025 13 323 1.6 3.2 0.00 0.00 0.00 57 1018.6
20200531061529 13 325 0.0 0.0 0.00 0.00 0.00 57 1018.6
20200531061024 13 19 0.0 0.0 0.00 0.00 0.00 56 1018.5
20200531060537 14 19 0.0 0.0 0.00 0.00 0.00 54 1018.4
20200531060035 14 19 0.0 0.0 0.00 0.00 0.00 54 1018.3
20200531055525 15 19 0.0 0.0 0.00 0.00 0.00 54 1018.3
20200531055025 15 20 0.0 0.0 0.00 0.00 0.00 54 1018.3
20200531054541 15 19 0.0 0.0 0.00 0.00 0.00 54 1018.3
20200531054039 15 36 0.0 1.6 0.00 0.00 0.00 52 1018.4
20200531053528 15 36 1.6 3.2 0.00 0.00 0.00 51 1018.3
20200531053025 15 32 1.6 3.2 0.00 0.00 0.00 51 1018.3
20200531052542 15 18 1.6 3.2 0.00 0.00 0.00 50 1018.3
20200531052039 16 5 1.6 3.2 0.00 0.00 0.00 50 1018.3
20200531051526 16 26 0.0 3.2 0.00 0.00 0.00 50 1018.3
20200531051043 16 5 0.0 3.2 0.00 0.00 0.00 49 1018.3
20200531050538 16 25 1.6 3.2 0.00 0.00 0.00 48 1018.3
20200531050035 16 348 0.0 3.2 0.00 0.00 0.00 48 1018.3
20200531045525 16 350 0.0 4.8 0.00 0.00 0.00 47 1018.3
20200531045043 16 39 1.6 4.8 0.00 0.00 0.00 47 1018.2
20200531044532 16 30 1.6 4.8 0.00 0.00 0.00 48 1018.2
20200531044029 16 24 1.6 6.4 0.00 0.00 0.00 47 1018.2
20200531043542 16 351 3.2 8.0 0.00 0.00 0.00 47 1018.2
20200531043039 16 360 1.6 19.3 0.00 0.00 0.00 46 1018.2
20200531042526 16 355 1.6 19.3 0.00 0.00 0.00 47 1018.2
20200531042027 16 5 1.6 4.8 0.00 0.00 0.00 48 1018.3
20200531041541 17 46 1.6 4.8 0.00 0.00 0.00 48 1018.2
20200531041038 17 27 1.6 4.8 0.00 0.00 0.00 47 1018.2
20200531040526 17 13 1.6 9.7 0.00 0.00 0.00 47 1018.2
20200531040041 17 311 1.6 9.7 0.00 0.00 0.00 47 1018.2
20200531035530 17 321 0.0 9.7 0.00 0.00 0.00 46 1018.2
20200531035026 17 327 3.2 12.9 0.00 0.00 0.00 45 1018.3
20200531034536 17 13 3.2 12.9 0.00 0.00 0.00 45 1018.2
20200531034033 17 355 3.2 20.9 0.00 0.00 0.00 47 1018.2
20200531033525 17 336 3.2 20.9 0.00 0.00 0.00 48 1018.1
20200531033043 17 22 1.6 20.9 0.00 0.00 0.00 49 1018.1
20200531032532 17 312 6.4 20.9 0.00 0.00 0.00 48 1017.9
20200531032028 18 355 4.8 20.9 0.00 0.00 0.00 50 1018.0
20200531031544 18 327 1.6 14.5 0.00 0.00 0.00 51 1017.9
20200531031040 18 20 1.6 17.7 0.00 0.00 0.00 52 1018.0
20200531030529 18 12 1.6 17.7 0.00 0.00 0.00 53 1017.9
20200531030027 18 36 1.6 6.4 0.00 0.00 0.00 53 1018.0
20200531025540 18 360 1.6 22.5 0.00 0.03 0.00 54 1017.9
20200531025037 18 48 3.2 22.5 0.00 0.03 0.00 53 1017.7
20200531024529 18 329 1.6 8.0 0.00 0.03 0.00 55 1017.6
20200531024029 18 30 3.2 12.9 0.00 0.03 0.00 55 1017.5
20200531023541 18 298 0.0 12.9 0.00 0.03 0.00 57 1017.4
20200531023039 18 345 1.6 6.4 0.00 0.03 0.00 56 1017.4
20200531022527 18 334 1.6 6.4 0.00 0.03 0.00 55 1017.1
20200531022024 18 340 1.6 4.8 0.00 0.03 0.00 55 1017.2
20200531021540 18 335 0.0 4.8 0.00 0.03 0.00 55 1017.1
20200531021037 19 322 0.0 3.2 0.00 0.03 0.00 55 1017.1
20200531020526 19 313 0.0 9.7 0.00 0.03 0.00 55 1017.0
20200531020043 19 325 1.6 9.7 0.00 0.03 0.00 55 1016.9
20200531015532 19 348 1.6 11.3 0.00 0.33 0.00 54 1016.6
20200531015030 19 294 3.2 11.3 0.00 0.33 0.00 54 1016.6
20200531014542 19 342 3.2 9.7 0.00 0.33 0.00 55 1016.5
20200531014041 19 311 3.2 8.0 0.00 0.33 0.00 55 1016.5
20200531013531 20 346 3.2 8.0 0.00 0.33 0.00 55 1016.4
20200531013028 20 344 1.6 6.4 0.00 0.33 0.00 55 1016.3
20200531012536 20 339 1.6 8.0 0.00 0.33 0.00 54 1016.3
20200531012033 20 5 1.6 22.5 0.00 0.33 0.00 53 1016.2
20200531011525 20 344 3.2 22.5 0.00 0.33 0.00 53 1016.2
20200531011041 20 343 3.2 8.0 0.00 0.33 0.00 53 1016.1
20200531010532 20 329 1.6 8.0 0.00 0.33 0.00 53 1016.0
20200531010030 20 321 1.6 9.7 0.00 0.33 0.00 53 1016.0
20200531005544 20 5 1.6 19.3 0.00 0.33 0.00 52 1015.9
20200531005041 20 355 4.8 19.3 0.00 0.33 0.00 52 1015.9
20200531004529 21 326 3.2 12.9 0.00 0.33 0.00 52 1015.7
20200531004025 21 332 1.6 6.4 0.00 0.33 0.00 52 1015.6
20200531003533 21 290 1.6 16.1 0.00 0.33 0.00 51 1015.5
20200531003031 21 319 1.6 16.1 0.00 0.33 0.00 52 1015.5
20200531002543 21 345 1.6 3.2 0.00 0.33 0.00 53 1015.4
20200531002040 21 292 1.6 4.8 0.00 0.33 0.00 52 1015.3
20200531001529 21 333 1.6 4.8 0.00 0.33 0.00 51 1015.1
20200531001026 22 329 3.2 6.4 0.00 0.33 0.00 50 1015.1
20200531000535 22 348 3.2 12.9 0.00 0.33 0.00 50 1015.0
20200531000031 22 329 3.2 12.9 0.00 0.33 0.00 50 1014.9
20200530235544 22 344 1.6 19.3 0.00 0.33 0.00 50 1014.8
20200530235041 22 312 3.2 19.3 0.00 0.33 0.00 49 1014.8
20200530234537 22 330 1.6 9.7 0.00 0.33 0.00 48 1014.7
20200530234038 22 311 3.2 12.9 0.00 0.33 0.00 47 1014.7
20200530233525 23 320 3.2 12.9 0.00 0.33 0.00 46 1014.6
20200530233042 23 311 1.6 14.5 0.00 0.33 0.00 46 1014.7
20200530232528 23 283 1.6 14.5 0.00 0.33 0.00 46 1014.6
20200530232025 23 272 1.6 16.1 0.00 0.33 0.00 45 1014.5
20200530231533 23 298 4.8 16.1 0.00 0.33 0.00 44 1014.5
20200530231030 24 304 1.6 16.1 0.00 0.33 0.00 45 1014.5
20200530230543 24 302 3.2 16.1 0.00 0.33 0.00 44 1014.5
20200530230038 24 303 3.2 16.1 0.00 0.33 0.00 45 1014.5
20200530225527 24 295 3.2 14.5 0.00 0.33 0.00 44 1014.5
20200530225025 24 290 3.2 14.5 0.00 0.33 0.00 44 1014.5
20200530224532 24 292 1.6 16.1 0.00 0.33 0.00 45 1014.5
20200530224030 25 360 4.8 20.9 0.00 0.33 0.00 42 1014.4
20200530223542 25 307 3.2 20.9 0.00 0.33 0.00 41 1014.4
20200530223038 25 298 3.2 20.9 0.00 0.33 0.00 42 1014.2
20200530222526 25 11 3.2 20.9 0.00 0.33 0.00 43 1014.2
20200530222043 25 311 3.2 14.5 0.00 0.33 0.00 44 1014.2
20200530221538 25 284 3.2 12.9 0.00 0.33 0.00 44 1014.1
20200530221035 25 289 3.2 14.5 0.00 0.33 0.00 43 1014.0
20200530220529 24 261 3.2 16.1 0.00 0.33 0.00 46 1014.2
20200530220028 24 319 3.2 19.3 0.00 0.33 0.00 45 1014.1
20200530215541 24 288 4.8 19.3 0.00 0.33 0.00 45 1014.1
20200530215038 24 293 1.6 11.3 0.00 0.33 0.00 47 1014.0
20200530214528 24 265 1.6 6.4 0.00 0.33 0.00 48 1014.0
20200530214043 24 351 1.6 8.0 0.00 0.33 0.00 46 1014.0
20200530213531 24 304 1.6 8.0 0.00 0.33 0.00 45 1014.0
20200530213027 25 348 1.6 12.9 0.00 0.33 0.00 46 1014.0
20200530212538 25 315 1.6 12.9 0.00 0.33 0.00 44 1014.0
20200530212029 25 311 0.0 14.5 0.00 0.33 0.00 44 1013.9
20200530211543 25 302 3.2 14.5 0.00 0.33 0.00 44 1014.0
20200530211041 25 18 1.6 6.4 0.00 0.33 0.00 46 1014.0
20200530210531 25 5 1.6 12.9 0.00 0.33 0.00 45 1014.0
20200530210029 25 327 1.6 12.9 0.00 0.33 0.00 44 1014.0
20200530205542 25 315 1.6 12.9 0.00 0.33 0.00 42 1014.1
20200530205039 26 286 3.2 24.1 0.00 0.33 0.00 43 1014.0
20200530204526 25 281 6.4 24.1 0.00 0.33 0.00 41 1013.9
20200530204042 25 305 3.2 19.3 0.00 0.33 0.00 40 1013.9
20200530203530 25 289 6.4 22.5 0.00 0.33 0.00 40 1014.0
20200530203031 25 302 6.4 22.5 0.00 0.33 0.00 40 1014.0
20200530202542 25 283 3.2 12.9 0.00 0.33 0.00 41 1013.9
20200530202037 25 302 3.2 22.5 0.00 0.33 0.00 41 1013.9
20200530201525 25 300 4.8 22.5 0.00 0.33 0.00 40 1013.9
20200530201041 25 311 4.8 17.7 0.00 0.33 0.00 39 1013.8
20200530200529 25 294 3.2 20.9 0.00 0.33 0.00 42 1013.8
20200530200024 24 318 3.2 20.9 0.00 0.33 0.00 42 1013.8
20200530195533 25 309 3.2 16.1 0.00 0.33 0.00 42 1013.8
20200530195030 25 316 4.8 16.1 0.00 0.33 0.00 43 1013.7
20200530194544 25 299 0.0 9.7 0.00 0.33 0.00 46 1013.8
20200530194040 25 320 0.0 17.7 0.00 0.33 0.00 45 1013.8
20200530193530 25 289 3.2 17.7 0.00 0.33 0.00 46 1013.9
20200530193026 25 285 1.6 11.3 0.00 0.33 0.00 44 1013.9
20200530192540 25 281 3.2 8.0 0.00 0.33 0.00 41 1013.9
20200530192037 25 258 1.6 8.0 0.00 0.33 0.00 44 1013.9
20200530191525 25 342 3.2 8.0 0.00 0.33 0.00 42 1013.9
20200530191042 25 350 3.2 8.0 0.00 0.33 0.00 45 1013.9
20200530190531 25 342 3.2 8.0 0.00 0.33 0.00 43 1014.0
20200530190043 25 306 3.2 8.0 0.00 0.33 0.00 43 1014.0
20200530185528 25 298 1.6 12.9 0.00 0.33 0.00 46 1013.9
20200530185030 25 300 0.0 6.4 0.00 0.33 0.00 43 1014.0
20200530184542 25 284 3.2 16.1 0.00 0.33 0.00 44 1014.0
20200530184040 25 286 3.2 16.1 0.00 0.33 0.00 45 1014.1
20200530183530 25 324 1.6 9.7 0.00 0.33 0.00 45 1014.1
20200530183027 25 222 3.2 9.7 0.00 0.33 0.00 46 1014.1
20200530182540 25 264 1.6 11.3 0.00 0.33 0.00 42 1014.2
20200530182038 25 11 1.6 11.3 0.00 0.33 0.00 43 1014.3
20200530181527 25 340 1.6 8.0 0.00 0.33 0.00 45 1014.3
20200530181044 25 336 3.2 8.0 0.00 0.33 0.00 44 1014.3
20200530180532 25 302 1.6 12.9 0.00 0.33 0.00 43 1014.4
20200530180029 25 261 1.6 12.9 0.00 0.33 0.00 43 1014.5
20200530175543 25 342 3.2 6.4 0.00 0.43 0.00 42 1014.5
20200530175038 26 306 0.0 8.0 0.00 0.43 0.00 44 1014.5
20200530174526 25 298 3.2 8.0 0.00 0.43 0.00 41 1014.5
20200530174044 25 320 0.0 6.4 0.00 0.43 0.00 45 1014.5
20200530173531 25 339 0.0 12.9 0.00 0.43 0.00 41 1014.7
20200530173028 25 339 1.6 12.9 0.00 0.43 0.00 44 1014.8
20200530172542 25 296 0.0 6.4 0.00 0.43 0.00 47 1014.8
20200530172040 25 320 3.2 11.3 0.00 0.43 0.00 43 1014.9
20200530171533 25 214 1.6 9.7 0.00 0.43 0.00 47 1014.9
20200530171029 25 273 1.6 9.7 0.00 0.43 0.00 43 1015.0
20200530170541 25 227 1.6 17.7 0.00 0.43 0.00 45 1015.0
20200530170038 25 307 3.2 17.7 0.00 0.43 0.00 44 1015.1
20200530165528 25 269 3.2 8.0 0.00 0.46 0.00 43 1015.1
20200530165025 25 199 1.6 6.4 0.00 0.46 0.00 46 1015.1
20200530164540 25 17 1.6 6.4 0.00 0.46 0.00 46 1015.0
20200530164036 25 219 0.0 4.8 0.00 0.46 0.00 48 1015.0
20200530163524 24 265 0.0 4.8 0.00 0.46 0.00 48 1015.1
20200530163041 24 216 1.6 4.8 0.00 0.46 0.00 48 1015.0
20200530162530 24 322 1.6 4.8 0.00 0.46 0.00 49 1015.1
20200530162026 24 281 0.0 4.8 0.00 0.46 0.00 51 1015.2
20200530161540 24 297 0.0 4.8 0.00 0.46 0.00 46 1015.1
20200530161038 24 291 3.2 4.8 0.00 0.46 0.00 47 1015.2
20200530160525 23 306 0.0 4.8 0.00 0.46 0.00 50 1015.2
20200530160043 23 317 1.6 6.4 0.00 0.46 0.00 50 1015.3
20200530155529 23 9 3.2 6.4 0.00 0.46 0.00 51 1015.4
20200530155026 23 355 0.0 8.0 0.00 0.46 0.00 49 1015.5
20200530154540 23 332 3.2 8.0 0.00 0.46 0.00 49 1015.5
20200530154040 23 302 0.0 6.4 0.00 0.46 0.00 51 1015.7
20200530153526 23 310 1.6 9.7 0.00 0.46 0.00 51 1015.7
20200530153043 23 311 0.0 8.0 0.00 0.46 0.00 50 1015.8
20200530152531 23 24 1.6 16.1 0.00 0.46 0.00 52 1015.9
20200530152027 22 80 3.2 16.1 0.00 0.46 0.00 54 1015.9
20200530151541 22 274 1.6 6.4 0.00 0.46 0.00 52 1016.0
20200530151039 22 5 1.6 6.4 0.00 0.46 0.00 53 1016.0
20200530150526 22 40 3.2 4.8 0.00 0.46 0.00 54 1016.0
20200530150043 22 300 1.6 6.4 0.00 0.46 0.00 53 1016.0
20200530145529 22 333 1.6 11.3 0.00 0.46 0.00 53 1016.2
20200530145026 22 291 1.6 11.3 0.00 0.46 0.00 54 1016.1
20200530144533 22 336 0.0 6.4 0.00 0.46 0.00 57 1016.2
20200530144028 22 32 1.6 6.4 0.00 0.46 0.00 57 1016.2
20200530143544 22 355 1.6 4.8 0.00 0.46 0.00 55 1016.2
20200530143041 21 317 1.6 4.8 0.00 0.46 0.00 57 1016.2
20200530142529 21 36 1.6 12.9 0.00 0.46 0.00 58 1016.1
20200530142025 21 33 1.6 12.9 0.00 0.46 0.00 56 1016.2
20200530141540 21 11 1.6 4.8 0.00 0.46 0.00 57 1016.2
20200530141038 21 338 0.0 3.2 0.00 0.46 0.00 58 1016.2
20200530140530 21 146 1.6 3.2 0.00 0.46 0.00 58 1016.1
20200530140028 20 74 0.0 3.2 0.00 0.46 0.00 60 1016.2
20200530135541 20 286 0.0 1.6 0.00 0.46 0.00 59 1016.2
20200530135039 20 355 0.0 3.2 0.00 0.46 0.00 58 1016.2
20200530134528 20 351 1.6 3.2 0.00 0.46 0.00 58 1016.3
20200530134026 20 333 0.0 8.0 0.00 0.46 0.00 60 1016.2
20200530133534 20 355 1.6 8.0 0.00 0.46 0.00 60 1016.3
20200530133030 20 350 0.0 6.4 0.00 0.46 0.00 60 1016.3
20200530132543 20 355 1.6 6.4 0.00 0.46 0.00 61 1016.3
20200530132041 19 331 1.6 8.0 0.00 0.46 0.00 61 1016.4
20200530131535 19 322 1.6 8.0 0.00 0.46 0.00 60 1016.3
20200530131031 19 360 1.6 4.8 0.00 0.46 0.00 61 1016.5
20200530130543 18 344 1.6 6.4 0.00 0.46 0.00 61 1016.5
20200530130041 18 332 3.2 4.8 0.00 0.46 0.00 62 1016.5
20200530125528 18 325 1.6 4.8 0.00 0.46 0.00 61 1016.4
20200530125027 18 344 0.0 3.2 0.00 0.46 0.00 63 1016.4
20200530124540 18 304 0.0 0.0 0.00 0.46 0.00 63 1016.4
20200530124038 18 331 0.0 3.2 0.00 0.46 0.00 63 1016.5
20200530123531 18 323 0.0 9.7 0.00 0.46 0.00 65 1016.4
20200530123029 18 336 0.0 12.9 0.00 0.46 0.00 65 1016.3
20200530122542 17 311 0.0 12.9 0.00 0.46 0.00 65 1016.2
20200530122041 17 290 1.6 9.7 0.00 0.46 0.00 65 1016.3
20200530121530 17 340 1.6 4.8 0.00 0.46 0.00 65 1016.3
20200530121025 17 318 0.0 4.8 0.00 0.46 0.00 65 1016.2
20200530120542 17 26 1.6 8.0 0.00 0.46 0.00 65 1016.2
20200530120040 17 348 3.2 8.0 0.00 0.46 0.00 66 1016.2
20200530115526 17 324 1.6 6.4 0.00 0.46 0.00 67 1016.2
20200530115044 17 360 0.0 0.0 0.00 0.46 0.00 67 1016.2
20200530114532 17 334 0.0 0.0 0.00 0.46 0.00 68 1016.0
20200530114028 17 355 0.0 0.0 0.00 0.46 0.00 69 1016.1
20200530113542 17 322 0.0 0.0 0.00 0.46 0.00 71 1016.1
20200530113039 17 340 0.0 4.8 0.00 0.46 0.00 71 1016.0
20200530112529 16 340 0.0 12.9 0.00 0.46 0.00 72 1016.0
20200530112027 16 325 0.0 12.9 0.00 0.46 0.00 77 1015.9
20200530111541 16 326 0.0 6.4 0.00 0.46 0.00 78 1015.8
20200530111035 16 346 1.6 8.0 0.00 0.46 0.00 79 1015.8
20200530110527 16 328 1.6 8.0 0.00 0.46 0.00 79 1015.9
20200530110044 16 332 0.0 0.0 0.00 0.46 0.00 79 1015.9
20200530105539 17 333 0.0 0.0 0.00 0.46 0.00 79 1015.9
20200530105036 17 335 0.0 0.0 0.00 0.46 0.00 79 1016.0
20200530104525 17 335 0.0 0.0 0.00 0.46 0.00 79 1016.0
20200530104041 17 335 0.0 0.0 0.00 0.46 0.00 78 1016.0
20200530103530 17 290 0.0 0.0 0.00 0.46 0.00 78 1015.9
20200530103025 17 348 0.0 4.8 0.00 0.46 0.00 78 1015.9
20200530102535 17 5 0.0 4.8 0.00 0.46 0.00 77 1015.9
20200530102032 17 340 0.0 4.8 0.00 0.46 0.00 76 1015.7
20200530101525 17 321 1.6 6.4 0.00 0.46 0.00 76 1015.5
20200530101043 17 317 0.0 6.4 0.00 0.46 0.00 76 1015.4
20200530100530 17 297 1.6 9.7 0.00 0.46 0.00 75 1015.4
20200530100027 17 296 3.2 9.7 0.00 0.46 0.00 75 1015.3
20200530095542 17 314 1.6 9.7 0.00 0.46 0.00 75 1015.2
20200530095040 17 313 3.2 8.0 0.00 0.46 0.00 77 1015.1
20200530094527 18 322 3.2 8.0 0.00 0.46 0.00 77 1015.1
20200530094024 18 341 3.2 14.5 0.00 0.46 0.00 78 1014.9
20200530093535 18 321 3.2 20.9 0.00 0.46 0.00 78 1014.8
20200530093036 18 273 4.8 20.9 0.00 0.46 0.00 78 1014.8
20200530092525 18 315 4.8 17.7 0.00 0.46 0.00 79 1014.8
20200530092041 18 336 4.8 16.1 0.00 0.46 0.00 80 1014.7
20200530091531 18 338 3.2 9.7 0.00 0.46 0.00 81 1014.7
20200530091028 18 326 0.0 0.0 0.00 0.46 0.00 80 1014.6
20200530090543 18 313 0.0 0.0 0.00 0.46 0.00 80 1014.6
20200530090040 18 308 0.0 0.0 0.00 0.46 0.00 80 1014.4
20200530085540 18 275 0.0 12.9 0.00 0.46 0.00 80 1014.4
20200530085036 18 297 1.6 12.9 0.00 0.46 0.00 80 1014.3
20200530084526 18 297 0.0 8.0 0.00 0.46 0.00 80 1014.2
20200530084044 18 295 1.6 14.5 0.00 0.46 0.00 80 1014.2
20200530083539 18 267 6.4 14.5 0.00 0.46 0.00 81 1014.1
20200530083035 18 279 1.6 14.5 0.00 0.46 0.00 81 1014.0
20200530082525 18 279 0.0 14.5 0.00 0.46 0.00 82 1014.0